Location: Casteau
(50.5142°N, 4.0161°E)
Time: 01:53:07
(UTC+00:00)

Transit 2A - Pass Details

Date: 03 August 2021
Orbit: 594 x 964 km, 66.7° (Epoch: 27 September)

Event Time Altitude Azimuth Distance (km) Brightness Sun altitude
Rises 12:45:00 0° 324° (NW) 3,165 9.0 55.1°
Reaches altitude 10° 12:47:23 10° 331° (NNW) 2,297 8.4 54.9°
Maximum altitude 12:52:27 44° 43° (NE) 1,124 7.1 54.6°
Drops below altitude 10° 12:58:00 10° 115° (ESE) 2,526 8.8 54.2°
Sets 13:00:44 0° 122° (ESE) 3,513 9.4 54.0°
